Location: Unspecified
(0.0000°N, 0.0000°E)
Time: 09:08:37
(UTC+00:00)

O/OREOS (USA 219) - Pass Details

Date: 22 May 2021
Orbit: 621 x 646 km, 72.0° (Epoch: 22 May)

Event Time Altitude Azimuth Distance (km) Brightness Sun altitude
Exits shadow 03:42:24 34° 79° (ENE) 1,027 ? -31.2°
Drops below altitude 10° 03:45:40 10° 37° (NE) 1,981 ? -30.5°
Sets 03:48:02 0° 29° (NNE) 2,885 ? -29.9°
